Weather History for 03772 - July, 2013

Change the Weather History Date:

Thursday, July 4, 2013

  Actual Average Record
Temperature  
Mean Temperature 65 °F -  
Max Temperature 76 °F 71 °F - ()
Min Temperature 54 °F 55 °F - ()
Growing Degree Days 15 (Base 50)    
Moisture  
Dew Point 55 °F    
Average Humidity 71    
Maximum Humidity 94    
Minimum Humidity 42    
Precipitation  
Precipitation 0.00 in - - ()
Sea Level Pressure  
Sea Level Pressure 30.11 in    
Wind  
Wind Speed 9 mph ()    
Max Wind Speed 16 mph    
Max Gust Speed -    
Visibility 6.7 miles    
Events      
T = Trace of Precipitation, MM = Missing Value Source: Averaged Metar Reports

Daily Weather History Graph

Daily Weather History Graph

Search for Another Location

Airport or City:

Trip Planner

Search our weather history database for the weather conditions in past years. The results will help you decide how hot, cold, wet, or windy it might be!

Date:

Astronomy

Jul. 04, 2013 Rise Set
Actual Time 4:51 AM BST 9:20 PM BST
Civil Twilight 4:04 AM BST 10:07 PM BST
Nautical Twilight 2:53 AM BST 11:17 PM BST
Astronomical Twilight 1:38 AM BST 12:33 AM BST
Moon 2:10 AM BST (7/4) 6:02 PM BST (7/4)
Length of Visible Light 18h 02m
Length of Day
16h 29m
Waning Crescent, 13% of the Moon is Illuminated
Jul 4
Waning Crescent
Jul 8
New
Jul 16
First Quarter
Jul 22
Full
Jul 29
Last Quarter

Hourly Weather History & Observations

Time (BST) Temp. Dew Point Humidity Pressure Visibility Wind Dir Wind Speed Gust Speed Precip Events Conditions
12:20 AM 55.4 °F 53.6 °F 94% 30.04 in - West 9.2 mph - N/A   Clear
12:50 AM 56 °F 51 °F 80% 30.04 in 14 mi WSW 5.8 mph - -  
12:50 AM 55.4 °F 51.8 °F 88% 30.04 in - WSW 5.8 mph - N/A   Clear
1:20 AM 55.4 °F 51.8 °F 88% 30.04 in 6.2 mi WSW 8.1 mph - N/A   Unknown
1:50 AM 55.4 °F 51.8 °F 88% 30.04 in 6.2 mi WSW 8.1 mph - N/A   Unknown
2:20 AM 55.4 °F 51.8 °F 88% 30.04 in 6.2 mi WSW 8.1 mph - N/A   Unknown
2:50 AM 53.6 °F 51.8 °F 94% 30.04 in 6.2 mi WSW 8.1 mph - N/A   Scattered Clouds
3:20 AM 55.4 °F 53.6 °F 94% 30.04 in 6.2 mi WSW 8.1 mph - N/A   Mostly Cloudy
3:50 AM 56 °F 52 °F 82% 30.05 in 14 mi SW 8.1 mph - -   Mostly Cloudy
3:50 AM 55.4 °F 53.6 °F 94% 30.04 in 6.2 mi WSW 8.1 mph - N/A   Mostly Cloudy
4:20 AM 55.4 °F 53.6 °F 94% 30.04 in 5.6 mi SW 8.1 mph - N/A   Mostly Cloudy
4:50 AM 55.4 °F 53.6 °F 94% 30.04 in 6.2 mi SSW 8.1 mph - N/A   Mostly Cloudy
5:20 AM 57.2 °F 55.4 °F 94% 30.04 in 6.2 mi SSW 6.9 mph - N/A   Mostly Cloudy
5:50 AM 57.2 °F 55.4 °F 94% 30.04 in 5.6 mi SW 10.4 mph - N/A   Mostly Cloudy
6:20 AM 57.2 °F 55.4 °F 94% 30.06 in 6.2 mi SSW 8.1 mph - N/A   Mostly Cloudy
6:50 AM 57 °F 54 °F 88% 30.06 in 11 mi SSW 6.9 mph - -  
6:50 AM 57.2 °F 55.4 °F 94% 30.06 in 6.2 mi SSW 6.9 mph - N/A   Mostly Cloudy
7:20 AM 59.0 °F 57.2 °F 94% 30.06 in 6.2 mi SSW 9.2 mph - N/A   Mostly Cloudy
7:50 AM 60.8 °F 57.2 °F 88% 30.04 in 6.2 mi SSW 9.2 mph - N/A   Mostly Cloudy
8:20 AM 62.6 °F 57.2 °F 82% 30.04 in 6.2 mi SSW 11.5 mph - N/A   Mostly Cloudy
8:50 AM 64.4 °F 57.2 °F 77% 30.06 in 6.2 mi SW 11.5 mph - N/A   Mostly Cloudy
9:20 AM 64.4 °F 57.2 °F 77% 30.06 in 6.2 mi SW 13.8 mph - N/A   Mostly Cloudy
9:50 AM 65 °F 57 °F 68% 30.09 in 25 mi WSW 12.7 mph - -   Overcast
9:50 AM 64.4 °F 59.0 °F 83% 30.09 in 6.2 mi WSW 11.5 mph - N/A   Mostly Cloudy
10:20 AM 66.2 °F 59.0 °F 78% 30.09 in 6.2 mi WSW 11.5 mph - N/A   Mostly Cloudy
10:50 AM 68.0 °F 59.0 °F 73% 30.09 in 6.2 mi SW 12.7 mph - N/A   Mostly Cloudy
11:20 AM 68.0 °F 59.0 °F 73% 30.09 in 6.2 mi WSW 11.5 mph - N/A   Mostly Cloudy
11:50 AM 71.6 °F 59.0 °F 64% 30.09 in 6.2 mi West 16.1 mph - N/A   Mostly Cloudy
12:20 PM 71.6 °F 59.0 °F 64% 30.09 in 6.2 mi WSW 16.1 mph - N/A   Overcast
12:50 PM 72 °F 58 °F 53% 30.11 in 22 mi SW 12.7 mph - -   Scattered Clouds
12:50 PM 71.6 °F 59.0 °F 64% 30.09 in 6.2 mi SW 13.8 mph - N/A   Mostly Cloudy
1:20 PM 71.6 °F 59.0 °F 64% 30.09 in 6.2 mi SW 16.1 mph - N/A   Mostly Cloudy
1:50 PM 71.6 °F 59.0 °F 64% 30.12 in 6.2 mi SW 12.7 mph - N/A   Mostly Cloudy
2:20 PM 73.4 °F 60.8 °F 65% 30.12 in 6.2 mi WSW 15.0 mph - N/A   Mostly Cloudy
2:50 PM 71.6 °F 60.8 °F 69% 30.12 in 6.2 mi WSW 16.1 mph - N/A   Mostly Cloudy
3:20 PM 73.4 °F 60.8 °F 65% 30.12 in 6.2 mi WSW 16.1 mph - N/A   Mostly Cloudy
3:50 PM 74 °F 59 °F 50% 30.13 in 31 mi WSW 15.0 mph - -   Scattered Clouds
3:50 PM 75.2 °F 60.8 °F 61% 30.12 in 6.2 mi West 16.1 mph - N/A   Scattered Clouds
4:20 PM 75.2 °F 60.8 °F 61% 30.12 in 6.2 mi WSW 16.1 mph - N/A   Scattered Clouds
4:50 PM 73.4 °F 59.0 °F 61% 30.12 in 6.2 mi WSW 15.0 mph - N/A   Scattered Clouds
5:20 PM 75.2 °F 59.0 °F 57% 30.12 in 6.2 mi WSW 11.5 mph - N/A   Scattered Clouds
5:50 PM 75.2 °F 57.2 °F 53% 30.12 in 6.2 mi WSW 10.4 mph - N/A   Scattered Clouds
6:20 PM 75.2 °F 57.2 °F 53% 30.15 in 6.2 mi West 12.7 mph - N/A   Scattered Clouds
6:50 PM 74 °F 56 °F 44% 30.16 in 28 mi West 12.7 mph - -   Scattered Clouds
6:50 PM 73.4 °F 57.2 °F 57% 30.15 in 6.2 mi West 13.8 mph - N/A   Partly Cloudy
7:20 PM 73.4 °F 55.4 °F 53% 30.15 in 6.2 mi West 11.5 mph - N/A   Partly Cloudy
7:50 PM 71.6 °F 55.4 °F 57% 30.18 in 6.2 mi NW 9.2 mph - N/A   Partly Cloudy
8:20 PM 69.8 °F 53.6 °F 56% 30.18 in 6.2 mi WNW 11.5 mph - N/A   Partly Cloudy
8:50 PM 68.0 °F 53.6 °F 60% 30.18 in 6.2 mi WNW 9.2 mph - N/A   Partly Cloudy
9:20 PM 68.0 °F 53.6 °F 60% 30.21 in - WNW 8.1 mph - N/A   Clear
9:50 PM 66 °F 53 °F 54% 30.23 in 11 mi West 6.9 mph - -  
9:50 PM 66.2 °F 48.2 °F 52% 30.21 in - West 8.1 mph - N/A   Clear
10:20 PM 64.4 °F 46.4 °F 52% 30.24 in - WNW 11.5 mph - N/A   Clear
10:50 PM 62.6 °F 42.8 °F 48% 30.24 in - West 11.5 mph - N/A   Clear
11:20 PM 60.8 °F 39.2 °F 45% 30.24 in - West 10.4 mph - N/A   Clear
11:50 PM 60.8 °F 37.4 °F 42% 30.27 in - West 9.2 mph - N/A   Clear